sat.trackr.live / text

‹ back to catalog

STARLINK-30940

NORAD 58409 · 2023-180H

PAYLOAD ACTIVE UNKNOWN

§ Identity

Operator
Country
US
Launch date
2023-11-22
Launch site
AFETR
Launch vehicle
Mass (kg)
RCS (m²)

Purposes: comms

External: N2YO · Heavens-Above · Gunter

§ Orbital elements

Epoch: 2026-05-25T04:55:48.962784Z

Period
94.27 min
Inclination
43.0034°
Eccentricity
0.0001639
Mean motion
15.27577319 rev/d
Perigee alt
481.9 km
Apogee alt
484.2 km
Semi-major
6,861.2 km
B*
3.2750e-5
RAAN
195.3461°
Arg perigee
265.1223°
Mean anomaly
94.9442°
Rev number
14,103

§ Raw data

STARLINK-309401 58409U 23180H   26145.20542781  .00000639  00000+0  32750-4 0  99952 58409  43.0034 195.3461 0001639 265.1223  94.9442 15.27577319141039

JSON: /api/v1/satellites/58409 · /tle

For live sub-satellite position, see the globe view (requires WebGL).

§ Visibility from observer

Set your observer location to see the next 7 days of passes ≥ 10°. The values pass through the URL so the page stays shareable.

No JS? Fill the form by hand. The geolocation button needs JavaScript.